sat.trackr.live / text

‹ back to catalog

STARLINK-4791

NORAD 53936 · 2022-119BC

PAYLOAD ACTIVE UNKNOWN

§ Identity

Operator
Country
US
Launch date
2022-09-24
Launch site
AFETR
Launch vehicle
Mass (kg)
RCS (m²)

Purposes: comms

External: N2YO · Heavens-Above · Gunter

§ Orbital elements

Epoch: 2026-09-19T22:57:54.897696Z

Period
94.01 min
Inclination
53.1589°
Eccentricity
0.0001231
Mean motion
15.31697459 rev/d
Perigee alt
469.9 km
Apogee alt
471.6 km
Semi-major
6,848.9 km
B*
1.3271e-5
RAAN
132.3018°
Arg perigee
93.4951°
Mean anomaly
266.6191°
Rev number
22,157

§ Raw data

STARLINK-47911 53936U 22119BC  26262.95688539  .00000047  00000+0  13271-4 0  99902 53936  53.1589 132.3018 0001231  93.4951 266.6191 15.31697459221573

JSON: /api/v1/satellites/53936 · /tle

For live sub-satellite position, see the globe view (requires WebGL).

§ Visibility from observer

Set your observer location to see the next 7 days of passes ≥ 10°. The values pass through the URL so the page stays shareable.

No JS? Fill the form by hand. The geolocation button needs JavaScript.